Погода в Лимане

Россия / Астраханская область     45°46′54″N   47°13′25″E
темп.,
°C
ветер,
м/с
пор.,
м/с
влажн.,
%
обл.,
%
осадки,
мм/ч
давл.,
гПа
погр.,
м
24 сентября, пт
пт2401:00+13с6789100 6.8 1011326
04:00+13ссв6889100 14.0 1009308
07:00+14с71088100 0.1 1007423
10:00+14ссз9118696 0.1 1008490
13:00+14сз9108399 0.0 1009557
16:00+14сз9117898 0.0 1010675
19:00+14сз71174100 0.0 1012699
22:00+13зсз5107199 0.0 1013549
25 сентября, сб
сб2501:00+12зсз49805 0.0 1013346
04:00+11зсз36810 0.0 1013157
07:00+11з33851 0.0 101346
10:00+15юз226699 0.0 1013405
13:00+18ююв2146100 0.0 1012921
16:00+19з2241100 0.0 10131198
19:00+18ссз2247100 0.0 101318
22:00+17зсз7856100 0.1 1015462
26 сентября, вс
вс2601:00+14юз6976100 1.2 1015473
04:00+14зюз7117694 1.3 1016613
07:00+12з611795 0.0 1016490
10:00+15з810625 0.0 1017808
13:00+18з8104775 0.1 10161958
16:00+18з91144100 0.1 10162229
19:00+16з8125399 0.0 10151188
22:00+15зюз7136777 0.1 10131080
27 сентября, пн
пн2701:00+15зюз9167598 0.4 10121236
04:00+16з91469100 0.6 1011966
07:00+15з813681 0.0 1011844
10:00+16зсз913541 0.0 10121256
13:00+17зсз911425 0.0 10131678
16:00+18зсз911365 0.0 10132269
19:00+16сз694146 0.0 1015444
22:00+14сз36525 0.0 1016223
28 сентября, вт
вт2801:00+12зсз47610 0.0 1016190
04:00+11зсз46680 0.0 1017158
07:00+10зсз35725 0.0 1019107
10:00+15сз44565 0.0 1020492
13:00+18ссз544490 0.0 10201851
16:00+18ссз444595 0.0 10201716
19:00+16ссз45538 0.0 1022146
22:00+14св795970 0.1 1024504